Regional Weather Roundup
Issued by NWS

Home | Current Version | Previous Version | Graphics & Text | Print | Product List | Glossary On
Versions: 1 2 3 4 5 6 7 8 9 10 11 12 13 14 15 16 17 18 19 20 21 22 23 24 25 26 27 28 29 30 31 32 33 34 35 36 37 38 39 40 41 42 43 44 45 46 47 48 49 50
000
ASUS45 KABQ 260710
RWRNM
NEW MEXICO REGIONAL WEATHER ROUNDUP
NATIONAL WEATHER SERVICE ALBUQUERQUE NM
100 AM MDT TUE SEP 26 2017

NOTE: "FAIR" MEANS FEW OR NO CLOUDS BELOW 12,000 FEET AGL WITH NO
       SIGNIFICANT WEATHER OR OBSTRUCTIONS TO VISION.

      THIS PRODUCT IS RELEASED AS TWO VERSIONS.  ONE VERSION NEAR
      THE TOP OF THE HOUR CONTAINING PRELIMINARY DATA FROM ALBUQUERQUE
      AND OTHER STATIONS.  A FINAL VERSION WITH ADDITIONAL DATA IS
      ISSUED ABOUT 10 MINUTES AFTER THE HOUR.

NMZ501-503-504-510>518-260800-
NORTHWEST PLATEAU/NORTHCENTRAL MOUNTAINS

CITY           SKY/WX    TMP DP  RH WIND       PRES   REMARKS
FARMINGTON     FAIR      39  18  42 N3        30.05R
LOS ALAMOS     FAIR      52  42  70 SW9       30.11F
SANTA FE       FAIR      52  47  83 S9        30.07F
TAOS           FAIR      50  39  66 SE8       30.14R
ANGEL FIRE     MOCLDY    40  39  94 CALM      30.20S

$$
NMZ402-403-502-505>509-260800-
WESTCENTRAL MOUNTAINS/SOUTHWEST MOUNTAINS

CITY           SKY/WX    TMP DP  RH WIND       PRES   REMARKS
GALLUP         FAIR      44  18  35 CALM      30.08S
GRANTS         FAIR      46  11  24 CALM      30.08S
SILVER CITY    FAIR      51  23  33 N7        29.97S

$$
NMZ407-409-411-412-260800-
SOUTHERN DESERTS

CITY           SKY/WX    TMP DP  RH WIND       PRES   REMARKS
DEMING         FAIR      54  26  34 W7        29.92R
LAS CRUCES     FAIR      58  22  25 N3        29.92S
HOLLOMAN AFB   FAIR      56  23  27 NE7       29.91S
ALAMOGORDO     FAIR      63  23  22 E8        29.91S
T OR C         FAIR      64  22  20 NW8       29.91F

$$
NMZ519>523-260800-
CENTRAL VALLEYS/CENTRAL HIGHLANDS

CITY           SKY/WX    TMP DP  RH WIND       PRES   REMARKS
ALBUQUERQUE    FAIR      61  50  67 E21G30    30.00S
DOUBLE EAGLE   FAIR      50  18  28 NW7       30.04R
MORIARTY ARPT  MOCLDY    55  51  86 E16       30.10R
CLINES CORNERS FOG       49  48  97 E16       30.13S VSB 1/4
BELEN          FAIR      53  15  22 W7        30.00R
SOCORRO        FAIR      60  27  28 N3        29.96S

$$
NMZ524>526-539-540-260800-
SOUTHCENTRAL MOUNTAINS

CITY           SKY/WX    TMP DP  RH WIND       PRES   REMARKS
RUIDOSO        CLOUDY    54  46  76 NW6       30.11S

$$
NMZ527>531-260800-
NORTHEAST HIGHLANDS/NORTHEAST PLAINS

CITY           SKY/WX    TMP DP  RH WIND       PRES   REMARKS
LAS VEGAS      CLOUDY    48  47  96 NE9       30.16R FOG
RATON          NOT AVBL
CLAYTON        CLOUDY    48  48 100 NE13      30.12R

$$
NMZ532>537-260800-
EASTCENTRAL PLAINS

CITY           SKY/WX    TMP DP  RH WIND       PRES   REMARKS
SANTA ROSA     CLOUDY    54  53  96 NE17G24   30.05S
TUCUMCARI      CLOUDY    58  54  86 NE15G22   30.03S
CANNON AFB     NOT AVBL
CLOVIS AIRPORT CLOUDY    57  56  96 NE14      30.05R

$$
NMZ028-029-538-260800-
SOUTHEAST PLAINS

CITY           SKY/WX    TMP DP  RH WIND       PRES   REMARKS
ROSWELL        CLOUDY    69  63  81 E5        29.94R
ARTESIA        CLOUDY    64  64 100 S6        29.91S
CARLSBAD       CLOUDY    69  69 100 S7        29.90R
HOBBS          FAIR      61  59  94 E6        29.94S


$$




USA.gov is the U.S. government's official web portal to all federal, state and local government web resources and services.